DW9227 Weather Reports


time (UTC)temp
C
wind
direction
speed
KPH
gust
KPH
rain 1hr
cm
rain 24hr
cm
rain mn
cm
humidity
%
barometer
mb
20260507033020 8 263 0.0 0.0 0.00 2.51 0.00 86 1013.4
20260507031516 8 263 0.0 0.0 0.00 2.51 0.00 86 1013.4
20260507030024 8 263 0.0 0.0 0.00 2.51 0.00 84 1013.4
20260507024517 8 263 0.0 0.0 0.00 2.51 0.00 83 1013.3
20260507023011 8 263 0.0 0.0 0.00 2.51 0.00 84 1013.3
20260507021511 8 263 0.0 0.0 0.00 2.51 0.00 86 1013.4
20260507020009 8 263 0.0 0.0 0.00 2.51 0.00 86 1013.4
20260507014511 8 263 0.0 0.0 0.00 2.51 0.00 85 1013.2
20260507013011 9 263 0.0 0.0 0.00 2.51 0.00 85 1013.1
20260507011505 9 263 0.0 0.0 0.00 2.51 0.00 86 1013.0
20260507010004 9 263 0.0 0.0 0.00 2.51 0.00 85 1013.0
20260507004501 9 263 0.0 0.0 0.00 2.51 0.00 85 1012.9
20260507003059 9 263 0.0 0.0 0.00 2.51 0.00 85 1012.9
20260507001608 9 263 0.0 0.0 0.00 2.51 0.00 86 1012.8
20260507000056 9 263 0.0 0.0 0.00 2.51 0.00 86 1012.5
20260506234559 10 263 0.0 0.0 0.00 2.51 0.00 87 1012.3
20260506233055 10 263 0.0 0.0 0.00 2.51 0.00 87 1012.3
20260506231607 10 263 0.0 0.0 0.00 2.51 0.00 87 1012.4
20260506230105 10 263 0.0 0.0 0.00 2.51 0.00 86 1012.4
20260506224548 10 263 0.0 0.0 0.00 2.51 0.00 87 1012.5
20260506223046 10 263 0.0 0.0 0.00 2.51 0.00 88 1012.5
20260506221602 10 263 0.0 0.0 0.00 2.51 0.00 88 1012.5
20260506220055 10 263 0.0 0.0 0.00 2.51 0.00 88 1012.5
20260506214544 10 263 0.0 0.0 0.00 2.51 2.51 87 1012.2
20260506213055 11 263 0.0 0.0 0.00 2.51 2.51 87 1012.1
20260506211540 11 263 0.0 0.0 0.00 2.51 2.51 86 1012.0
20260506210051 11 263 0.0 0.0 0.00 2.51 2.51 85 1011.9
20260506204540 11 263 0.0 0.0 0.00 2.51 2.51 84 1011.8
20260506203039 11 263 0.0 0.0 0.00 2.51 2.51 85 1011.5
20260506201545 12 263 0.0 0.0 0.00 2.51 2.51 84 1011.4
20260506200038 12 263 0.0 0.0 0.00 2.51 2.51 84 1011.1
20260506194537 12 263 0.0 0.0 0.00 2.51 2.51 83 1010.7
20260506193037 13 263 0.0 0.0 0.00 2.51 2.51 82 1010.4
20260506191536 13 263 0.0 0.0 0.00 2.51 2.51 80 1010.1
20260506190035 13 263 0.0 0.0 0.00 2.51 2.51 79 1009.9
20260506184538 14 263 0.0 0.0 0.00 2.54 2.51 78 1009.6
20260506183035 14 263 0.0 0.0 0.00 2.54 2.51 77 1009.3
20260506181535 15 263 0.0 0.0 0.00 2.54 2.51 75 1009.0
20260506180038 15 263 0.0 0.0 0.00 2.54 2.51 74 1008.7
20260506174534 15 263 0.0 0.0 0.00 2.54 2.51 72 1008.5
20260506173031 15 263 0.0 0.0 0.00 2.54 2.51 70 1008.2
20260506171539 15 286 0.0 0.0 0.00 2.54 2.51 69 1007.9
20260506170029 16 286 0.0 11.3 0.00 2.54 2.51 68 1008.0
20260506164529 16 291 0.0 6.4 0.00 2.54 2.51 65 1007.8
20260506163030 17 287 1.6 12.9 0.00 2.54 2.51 62 1007.7
20260506161530 17 286 0.0 14.5 0.00 2.54 2.51 64 1007.8
20260506160029 17 280 0.0 8.0 0.00 2.54 2.51 68 1008.2
20260506154526 16 279 0.0 6.4 0.00 2.54 2.51 70 1008.5
20260506153025 16 279 0.0 0.0 0.03 2.54 2.51 71 1008.6
20260506151526 15 279 0.0 0.0 0.03 2.54 2.51 72 1008.6
20260506150027 15 279 0.0 0.0 0.03 2.54 2.51 74 1008.9
20260506144523 15 165 0.0 11.3 0.03 2.54 2.51 69 1008.9
20260506143022 16 304 0.0 0.0 0.00 2.51 2.49 71 1008.2
20260506141522 16 304 0.0 0.0 0.00 2.51 2.49 67 1007.7
20260506140027 16 304 0.0 0.0 0.00 2.51 2.49 65 1007.7
20260506134521 16 304 0.0 4.8 0.00 2.51 2.49 63 1007.7
20260506133027 17 304 0.0 0.0 0.00 2.51 2.49 65 1007.9
20260506131518 17 304 0.0 9.7 0.00 2.51 2.49 64 1008.1
20260506130012 16 305 0.0 0.0 0.00 2.51 2.49 71 1008.4
20260506124508 15 306 0.0 9.7 0.00 2.51 2.49 70 1008.7
20260506123008 15 302 0.0 12.9 0.00 2.51 2.49 71 1008.7
20260506121503 15 321 1.6 8.0 0.03 2.51 2.49 68 1008.8
20260506114557 13 338 1.6 16.1 0.03 2.51 2.49 77 1008.9
20260506113052 13 107 0.0 12.9 0.03 2.51 2.49 82 1008.9
20260506111549 12 109 0.0 0.0 0.00 2.49 2.49 87 1009.0
20260506110048 12 109 0.0 0.0 0.00 2.49 2.49 88 1009.1
20260506104553 11 109 0.0 0.0 0.00 2.49 2.49 87 1009.0
20260506103052 11 109 0.0 0.0 0.00 2.49 2.49 89 1009.1
20260506101547 10 109 0.0 4.8 0.00 2.49 2.49 90 1009.2
20260506094543 10 109 0.0 11.3 0.20 2.49 2.49 93 1009.3
20260506093041 10 112 0.0 1.6 0.33 2.49 2.49 93 1009.3
20260506091538 11 112 0.0 0.0 0.43 2.49 2.49 95 1009.3
20260506090036 11 112 0.0 0.0 0.53 2.46 2.44 95 1009.2
20260506084540 11 112 0.0 0.0 0.51 2.31 2.29 95 1009.1
20260506083035 11 112 0.0 0.0 0.58 2.18 2.16 95 1009.4
20260506081534 11 112 0.0 0.0 0.71 2.08 2.06 95 1009.3
20260506073029 11 112 0.0 0.0 0.86 1.60 1.57 95 1009.0
20260506071527 12 112 0.0 0.0 0.61 1.37 1.35 95 1009.1
20260506061523 12 112 0.0 0.0 0.33 0.84 0.71 95 1008.6
20260506060122 12 112 0.0 9.7 0.46 0.81 0.71 95 1008.7
20260506044525 12 112 0.0 4.8 0.15 0.79 0.15 94 1009.2
20260506043012 12 112 0.0 1.6 0.08 0.71 0.08 94 1009.3
20260506041512 12 112 0.0 1.6 0.05 0.71 0.05 94 1009.3
20260506040010 12 112 0.0 0.0 0.00 0.66 0.00 94 1009.5
20260506034508 12 112 0.0 0.0 0.00 0.81 0.00 94 1009.7